SL-16 R/B (22285 NORAD) Tracking and Keplerian Element Data

This shows tracking and keplerian element data for the satellite.

Feedback or suggestion? Click here.




ElementValue
Catalog22285
NameSL-16 R/B
Epoch Orbit34015
Epoch Day351.87186389
Epoch Year2018
RAAN141.2621
Inclination71.0212
Eccentricity0.0004517
Argument of Perigee340.436
Mean Anonmoly19.6588
Mean Motion14.15032097
Decay Rate3.6E-07
L11 22285U 92093B 18351.87186389 .00000036 00000-0 42948-4 0 9990
L22 22285 71.0212 141.2621 0004517 340.4360 19.6588 14.15032097340150

Live tracking and technical data element details for SL-16 R/B (NORAD 22285). SL-16 R/B can be tracked NOW for your location showing map with azimuth and elevation plus other details from your city location.

Track the satellite on the map from your city or location and see movement details for azimuth, elevation, latitude, longitude, range, height, and movement on the map or in text.







IsCatalogInMostPopularTable: catalog: 22285, numindb: 41
Update: records affected: 1



GetName: 22285 SL-16 R/B

Hit Count: updated at: Tue, 18 Dec 2018 21:47:01 GMT